Ahmedabad, India

5:34 PM IST on June 27, 2017 (GMT +0530)
Ahmedabad

Weather History for VAAH - April, 2013

Change the Weather History Date:

Sunday, April 21, 2013

  Actual Average Record
Temperature  
Mean Temperature 84 °F -  
Max Temperature 97 °F 101 °F 111 °F (2015)
Min Temperature 70 °F 78 °F 69 °F (2014)
Cooling Degree Days 18    
Growing Degree Days 34 (Base 50)    
Moisture  
Dew Point 68 °F    
Average Humidity 55    
Maximum Humidity 83    
Minimum Humidity 25    
Precipitation  
Precipitation 0.00 in 0.02 in - ()
Sea Level Pressure  
Sea Level Pressure 29.72 in    
Wind  
Wind Speed 5 mph ()    
Max Wind Speed 14 mph    
Max Gust Speed -    
Visibility 2.6 miles    
Events      
Averages and records for this station are not official NWS values.
T = Trace of Precipitation, MM = Missing Value Source: Averaged Metar Reports

Daily Weather History Graph

Daily Weather History Graph

Search for Another Location

Airport or City:

Trip Planner

Search our weather history database for the weather conditions in past years. The results will help you decide how hot, cold, wet, or windy it might be!

Date:

Astronomy

Apr. 21, 2013 Rise Set
Actual Time 6:14 AM IST 7:02 PM IST
Civil Twilight 5:50 AM IST 7:25 PM IST
Nautical Twilight 5:23 AM IST 7:53 PM IST
Astronomical Twilight 4:55 AM IST 8:21 PM IST
Moon 2:50 PM IST (4/21) 2:48 AM IST (4/21)
Length of Visible Light 13h 35m
Length of Day
12h 48m
Waxing Gibbous, 76% of the Moon is Illuminated
Apr 21
Waxing Gibbous
Apr 26
Full
May 2
Last Quarter
May 10
New
May 18
First Quarter

Hourly Weather History & Observations

Time (IST) Temp. Heat Index Dew Point Humidity Pressure Visibility Wind Dir Wind Speed Gust Speed Precip Events Conditions
12:40 AM 73.4 °F - 62.6 °F 69% 29.77 in 2.5 mi South 13.8 mph - N/A   Smoke
1:10 AM 73.4 °F - 62.6 °F 69% 29.74 in 2.5 mi South 12.7 mph - N/A   Smoke
2:30 AM 74 °F - 66 °F 68% 29.74 in 2 mi SE 3.5 mph - -   Haze
5:10 AM 73.4 °F - 64.4 °F 73% 29.71 in 2.5 mi WSW 5.8 mph - N/A   Haze
5:30 AM 72 °F - 65 °F 74% 29.73 in 2 mi Calm Calm - -   Haze
5:40 AM 71.6 °F - 64.4 °F 78% 29.71 in 2.5 mi WSW 5.8 mph - N/A   Haze
6:10 AM 71.6 °F - 64.4 °F 78% 29.74 in 2.5 mi WSW 5.8 mph - N/A   Haze
7:10 AM 71.6 °F - 66.2 °F 83% 29.74 in 1.2 mi SW 4.6 mph - N/A   Haze
8:10 AM 73.4 °F - 64.4 °F 73% 29.77 in 0.9 mi Calm Calm - N/A   Partly Cloudy
8:30 AM 80 °F - 65 °F 52% 29.78 in 1 mi Calm Calm - -   Haze
8:40 AM 75.2 °F - 64.4 °F 69% 29.77 in 0.9 mi Calm Calm - N/A   Partly Cloudy
9:10 AM 78.8 °F - 66.2 °F 65% 29.77 in 1.2 mi East 3.5 mph - N/A   Haze
9:40 AM 82.4 °F 84.6 °F 66.2 °F 58% 29.77 in 1.2 mi Calm Calm - N/A   Haze
10:40 AM 86.0 °F 89.4 °F 68.0 °F 55% 29.77 in 2.5 mi Calm Calm - N/A   Smoke
11:30 AM 91 °F - 69 °F 39% 29.78 in 2 mi SE 3.5 mph - -   Smoke
11:40 AM 91.4 °F 96.8 °F 69.8 °F 49% 29.77 in 3.7 mi SE 3.5 mph - N/A   Partly Cloudy
12:10 PM 91.4 °F 96.8 °F 69.8 °F 49% 29.74 in 3.7 mi SE 3.5 mph - N/A   Partly Cloudy
12:40 PM 93.2 °F 97.7 °F 68.0 °F 44% 29.74 in 3.7 mi SE 3.5 mph - N/A   Partly Cloudy
1:10 PM 95.0 °F 101.3 °F 69.8 °F 44% 29.74 in 3.7 mi SSE 4.6 mph - N/A   Scattered Clouds
1:40 PM 95.0 °F 99.5 °F 68.0 °F 41% 29.71 in 3.7 mi WSW 3.5 mph - N/A   Scattered Clouds
2:10 PM 95.0 °F 99.5 °F 68.0 °F 41% 29.68 in 3.7 mi Variable 3.5 mph - N/A   Scattered Clouds
2:30 PM 95 °F - 66 °F 29% 29.71 in 2 mi WNW 3.5 mph - -   Partly Cloudy
2:40 PM 96.8 °F 101.8 °F 68.0 °F 39% 29.68 in 3.7 mi Variable 3.5 mph - N/A   Scattered Clouds
3:10 PM 96.8 °F 101.8 °F 68.0 °F 39% 29.68 in 3.7 mi Variable 3.5 mph - N/A   Scattered Clouds
3:40 PM 96.8 °F 101.8 °F 68.0 °F 39% 29.65 in 3.7 mi Variable 3.5 mph - N/A   Scattered Clouds
4:10 PM 96.8 °F 103.1 °F 69.8 °F 41% 29.65 in 3.7 mi WSW 3.5 mph - N/A   Scattered Clouds
4:40 PM 96.8 °F 105.1 °F 71.6 °F 44% 29.65 in 3.7 mi West 3.5 mph - N/A   Scattered Clouds
5:10 PM 95.0 °F 101.3 °F 69.8 °F 44% 29.65 in 3.7 mi West 3.5 mph - N/A   Scattered Clouds
5:30 PM 97 °F - 65 °F 25% 29.65 in 2 mi SW 3.5 mph - -   Partly Cloudy
5:40 PM 95.0 °F 104.5 °F 73.4 °F 49% 29.62 in 3.7 mi Calm Calm - N/A   Scattered Clouds
6:10 PM 93.2 °F 102.4 °F 73.4 °F 52% 29.65 in 3.7 mi Variable 3.5 mph - N/A   Scattered Clouds
7:10 PM 89.6 °F 96.2 °F 71.6 °F 55% 29.65 in 2.5 mi ESE 4.6 mph - N/A   Smoke
7:40 PM 87.8 °F 92.6 °F 69.8 °F 55% 29.65 in 2.5 mi NW 6.9 mph - N/A   Smoke
8:10 PM 86.0 °F 90.4 °F 69.8 °F 58% 29.68 in 2.5 mi SE 9.2 mph - N/A   Smoke
8:30 PM 89 °F - 70 °F 43% 29.71 in 2 mi SE 3.5 mph - -   Smoke
8:40 PM 86.0 °F 90.4 °F 69.8 °F 58% 29.68 in 2.5 mi SE 8.1 mph - N/A   Smoke
9:10 PM 86.0 °F 89.4 °F 68.0 °F 55% 29.71 in 2.5 mi SE 8.1 mph - N/A   Smoke
9:40 PM 84.2 °F 88.4 °F 69.8 °F 62% 29.71 in 2.5 mi SSE 11.5 mph - N/A   Smoke
10:10 PM 84.2 °F 88.4 °F 69.8 °F 62% 29.74 in 2.5 mi WSW 10.4 mph - N/A   Smoke
10:40 PM 82.4 °F 87.2 °F 71.6 °F 70% 29.74 in 2.5 mi SSW 11.5 mph - N/A   Haze
11:10 PM 82.4 °F 87.2 °F 71.6 °F 70% 29.77 in 2.5 mi SW 9.2 mph - N/A   Haze
11:30 PM 84 °F - 70 °F 54% 29.77 in 2 mi WSW 3.5 mph - -  
11:40 PM 82.4 °F 86.3 °F 69.8 °F 66% 29.77 in 2.5 mi WSW 8.1 mph - N/A   Haze